Location: Unspecified
(0.0000°N, 0.0000°E)
Time: 07:29:14
(UTC+00:00)

Explorer 11/Cluster Stage 4 - All Passes

Search period start: 23 August 2014 00:00
Search period end: 02 September 2014 00:00
Orbit: 468 x 1284 km, 28.8° (Epoch: 22 August)

Date Brightness Start Highest point End Pass type
(mag) Time Alt. Az. Time Alt. Az. Time Alt. Az.
23 Aug - 08:25:01 10° NW 08:28:52 55° NNE 08:33:33 10° ESE daylight
23 Aug - 10:13:52 10° W 10:17:47 26° SSW 10:22:28 10° SSE daylight
23 Aug - 17:37:48 10° SSW 17:42:52 17° SSE 17:47:52 10° ESE daylight
23 Aug - 19:25:27 10° SW 19:33:23 46° SSE 19:40:28 10° E visible
23 Aug - 21:15:17 10° WSW 21:23:06 59° NNW 21:29:34 10° NE visible
23 Aug - 23:08:36 10° WNW 23:12:21 15° NNW 23:15:44 10° N night (unlit)
24 Aug - 08:18:34 10° NW 08:22:24 79° NNE 08:27:00 10° ESE daylight
24 Aug - 10:08:07 10° WSW 10:11:25 19° SSW 10:15:14 10° SSE daylight
24 Aug - 17:30:34 10° SSW 17:36:22 20° SSE 17:42:08 10° ESE daylight
24 Aug - 19:18:31 10° SW 19:26:43 56° SSE 19:34:08 10° ENE visible
24 Aug - 21:08:42 10° WSW 21:16:24 48° NNW 21:22:55 10° NE visible
24 Aug - 23:02:59 10° NW 23:05:50 13° NNW 23:08:30 10° N night (unlit)
25 Aug - 06:25:37 10° N 06:27:33 14° NNE 06:29:33 10° ENE daylight
25 Aug - 08:12:12 10° WNW 08:15:57 71° SSW 08:20:23 10° SE daylight
25 Aug - 10:02:40 10° SW 10:05:05 14° SSW 10:07:46 10° S daylight
25 Aug - 17:23:26 10° SSW 17:29:49 24° SSE 17:36:13 10° ESE daylight
25 Aug - 19:11:38 10° SW 19:20:01 68° SSE 19:27:42 10° ENE visible
25 Aug - 21:02:13 10° W 21:09:42 40° NNW 21:16:11 10° NE visible
25 Aug - 22:57:57 10° NW 22:59:22 11° NNW 23:00:43 10° NNW night (unlit)
26 Aug - 06:18:29 10° NNW 06:21:07 19° NNE 06:23:50 10° ENE daylight
26 Aug - 08:05:57 10° WNW 08:09:32 47° SSW 08:13:40 10° SE daylight
26 Aug - 17:16:23 10° SSW 17:23:13 29° SSE 17:30:09 10° E daylight
26 Aug - 19:04:50 10° SW 19:13:17 82° SSE 19:21:10 10° ENE visible
26 Aug - 20:55:50 10° W 21:03:01 33° NNW 21:09:23 10° NNE visible
27 Aug - 06:11:35 10° NNW 06:14:42 27° NNE 06:17:51 10° E daylight
27 Aug - 07:59:50 10° W 08:03:09 32° SSW 08:06:51 10° SE daylight
27 Aug - 15:23:55 10° S 15:26:08 11° SSE 15:28:24 10° SE daylight
27 Aug - 17:09:25 10° SSW 17:16:34 34° SSE 17:23:57 10° E daylight
27 Aug - 18:58:06 10° WSW 19:06:32 84° NNW 19:14:33 10° ENE visible
27 Aug - 20:49:34 10° W 20:56:21 28° NNW 21:02:30 10° NNE visible
28 Aug - 06:04:50 10° NW 06:08:17 39° NNE 06:11:43 10° E daylight
28 Aug - 07:53:51 10° W 07:56:46 22° SSW 07:59:54 10° SSE daylight
28 Aug - 15:16:20 10° S 15:19:41 13° SSE 15:23:13 10° SE daylight
28 Aug - 17:02:30 10° SW 17:09:53 41° SSE 17:17:38 10° E daylight
28 Aug - 18:51:27 10° WSW 18:59:47 71° NNW 19:07:51 10° NE visible
28 Aug - 20:43:25 10° WNW 20:49:43 24° NNW 20:55:33 10° NNE visible
29 Aug - 05:58:11 10° NW 06:01:52 60° NNE 06:05:26 10° ESE daylight
29 Aug - 07:48:07 10° WSW 07:50:23 16° SSW 07:52:45 10° SSE daylight
29 Aug - 15:09:04 10° S 15:13:11 16° SSE 15:17:37 10° ESE daylight
29 Aug - 16:55:40 10° SW 17:03:09 49° SSE 17:11:12 10° ENE daylight
29 Aug - 18:44:54 10° WSW 18:53:02 59° NNW 19:01:04 10° NE visible
29 Aug - 20:37:24 10° WNW 20:43:07 20° NNW 20:48:30 10° NNE visible
30 Aug - 04:04:36 10° N 04:06:41 13° NNE 04:08:39 10° NE visible
30 Aug - 05:51:38 10° WNW 05:55:26 87° SSW 05:59:02 10° ESE daylight
30 Aug - 07:43:01 10° SW 07:44:01 11° SSW 07:45:02 10° S daylight
30 Aug - 15:01:57 10° SSW 15:06:38 19° SSE 15:11:47 10° ESE daylight
30 Aug - 16:48:54 10° SW 16:56:25 59° SSE 17:04:40 10° ENE daylight
30 Aug - 18:38:26 10° WSW 18:46:18 49° NNW 18:54:13 10° NE visible
30 Aug - 20:31:34 10° WNW 20:36:34 17° NNW 20:41:22 10° NNE visible
31 Aug - 03:57:10 10° NNW 04:00:20 19° NNE 04:03:10 10° ENE visible
31 Aug - 05:45:11 10° WNW 05:49:00 57° SSW 05:52:33 10° SE daylight
31 Aug - 14:54:57 10° SSW 15:00:03 22° SSE 15:05:46 10° ESE daylight
31 Aug - 16:42:12 10° SW 16:49:40 71° SSE 16:58:02 10° ENE daylight
31 Aug - 18:32:05 10° W 18:39:36 41° NNW 18:47:17 10° NE visible
31 Aug - 20:25:56 10° NW 20:30:04 14° NNW 20:34:06 10° N visible
01 Sep - 03:50:02 10° NNW 03:53:58 27° NNE 03:57:21 10° E visible
01 Sep - 05:38:49 10° W 05:42:33 38° SSW 05:45:58 10° SE daylight
01 Sep - 14:48:03 10° SSW 14:53:26 26° SSE 14:59:36 10° E daylight
01 Sep - 16:35:35 10° WSW 16:42:56 85° SSE 16:51:19 10° ENE daylight
01 Sep - 18:25:50 10° W 18:32:56 34° NNW 18:40:17 10° NNE visible
01 Sep - 20:20:36 10° NW 20:23:37 12° NNW 20:26:36 10° N visible
